GEFSSE_con_cape1000_000.txt.gz
Probability
3 23 100 100 100 100 100 100 100 100 100 100 100 100 100 100 100 100 100 100 100 100 100 100 100 100 100 100 100 97 84 74 81 100 100 100 100 100 100 100 100 100 100
13 48 100 100 100 100 100 100 100 100 100 100 100 100 100 100 100 100 100 100 100 100 100 100 100 100 100 100 100 100 94 100 97 100 100 100 100 100 100 100 100 100 100
61 90 100 100 100 100 100 100 100 100 100 100 100 100 100 100 100 100 100 100 100 100 100 100 100 100 100 100 100 100 100 100 97 100 100 100 100 100 100 100 100 100 100
97 94 100 100 100 100 100 100 100 100 100 100 100 100 100 100 100 100 100 100 100 100 100 100 100 100 100 100 97 97 74 42 32 68 97 100 100 100 100 100 100 100 100
100 97 100 100 100 100 100 100 100 100 100 100 100 100 100 100 100 100 100 100 100 100 100 100 100 100 100 97 90 65 55 35 13 10 87 97 100 100 100 100 100 100 100
97 94 100 100 100 100 100 100 100 100 100 100 100 100 100 100 100 100 100 100 100 100 100 100 100 100 97 71 48 39 32 45 48 13 81 100 100 100 100 100 100 100 100
84 81 100 100 100 100 100 100 100 100 100 100 100 100 97 100 100 100 100 100 100 100 100 100 100 81 52 29 3 0 0 0 16 16 84 97 100 94 71 48 32 65 94
97 97 100 100 100 100 100 100 100 100 100 100 100 100 100 100 100 100 100 100 100 100 100 90 35 6 10 0 0 0 0 0 0 3 13 81 90 74 35 0 0 0 3
100 97 100 100 100 100 100 100 100 100 100 100 100 100 100 100 100 100 100 100 100 100 100 42 10 6 3 3 0 0 0 0 0 0 10 23 3 0 3 0 0 0 0
100 100 100 100 100 100 100 100 100 100 100 100 100 100 100 100 100 100 100 100 100 100 100 26 0 0 0 0 0 0 0 0 0 0 0 0 0 0 0 0 0 0 0
100 100 100 100 100 100 100 100 100 100 100 100 100 100 100 100 100 100 100 100 100 100 65 0 0 0 0 0 0 0 0 0 0 0 0 0 3 3 3 0 0 0 0
100 97 100 100 100 100 100 100 100 100 100 100 100 100 100 100 100 100 100 100 100 100 81 3 3 0 0 0 0 0 0 0 0 0 0 3 3 6 6 3 16 26 16
48 32 29 100 100 100 100 100 100 100 100 100 100 100 100 100 100 100 100 100 100 100 10 0 0 0 0 0 0 0 0 0 0 0 0 0 0 10 10 10 10 65 94
0 0 0 100 100 100 100 100 100 97 100 100 100 100 100 100 100 87 74 13 0 0 0 0 0 0 0 0 0 0 0 0 0 0 0 6 13 6 0 6 23 39 81
0 0 0 100 100 100 100 100 84 94 94 87 100 100 100 100 94 81 61 29 13 3 3 0 0 0 0 0 0 0 0 0 0 0 0 3 0 0 3 0 0 0 13
19 10 0 84 100 100 100 100 100 74 90 87 74 97 100 100 100 100 90 94 74 13 3 3 0 0 0 0 0 0 0 0 0 0 0 0 0 0 0 0 0 0 3
35 26 26 6 100 100 100 100 100 97 94 81 90 100 100 100 100 100 100 77 19 3 3 0 0 0 0 0 0 0 0 0 0 0 0 0 0 0 0 0 0 0 0
13 23 19 6 87 100 100 100 100 100 100 100 87 84 87 90 94 65 26 16 0 0 0 0 0 0 0 0 0 0 0 0 0 0 0 0 0 0 0 0 0 0 0
13 16 26 35 97 100 100 100 100 81 68 48 32 13 0 0 0 0 0 0 0 0 0 0 0 0 0 0 0 0 0 0 0 0 0 0 0 0 0 0 0 0 0
10 45 87 90 100 100 100 94 74 29 6 0 0 0 0 0 0 0 0 0 0 0 0 0 0 0 0 0 0 0 0 0 0 0 0 0 0 0 0 0 0 0 0
16 71 97 97 97 100 97 74 32 0 0 0 0 0 0 0 0 0 0 0 0 0 0 0 0 0 0 0 0 0 0 0 0 0 0 0 0 0 0 0 0 0 0
35 71 97 97 97 97 94 39 0 0 0 0 0 0 0 0 0 0 0 0 0 0 0 0 0 0 0 0 0 0 0 0 0 0 0 0 0 0 0 0 0 0 0
32 68 90 97 68 55 16 0 0 0 0 0 0 0 0 0 0 0 0 0 0 0 0 0 0 0 0 0 0 0 0 0 0 0 0 0 0 0 0 0 0 0 0
16 39 45 32 16 10 0 0 0 0 0 0 0 0 0 0 0 0 0 0 0 0 0 0 0 0 0 0 0 0 0 0 0 0 0 0 0 0 0 0 0 0 0
10 16 16 10 3 0 0 0 0 0 0 0 0 0 0 0 0 0 0 0 0 0 0 0 0 0 0 0 0 0 0 0 0 0 0 0 0 0 0 0 0 0 0
3 6 6 0 0 0 0 0 0 0 0 0 0 0 0 0 0 0 0 0 0 0 0 0 0 0 0 0 0 0 0 0 0 0 0 0 0 0 0 0 0 0 0

GEFSSE_con_cape1000_006.txt.gz
Probability
10 81 100 100 100 100 100 100 100 100 100 100 100 100 100 100 100 100 100 100 100 100 100 100 100 100 100 100 94 68 32 19 13 10 35 94 87 94 97 97 100 100 100
45 94 100 100 100 100 100 100 100 100 100 100 100 100 100 100 100 100 100 100 100 100 100 100 100 100 100 97 81 58 6 3 10 13 26 84 90 77 71 74 100 100 100
94 100 100 100 100 100 100 100 100 100 100 100 100 100 100 100 100 100 100 100 94 81 65 94 100 100 97 97 68 6 0 0 26 68 81 100 100 97 94 97 100 100 100
100 100 100 100 100 100 100 100 100 100 100 100 100 100 100 100 100 100 100 100 90 97 100 100 100 100 100 87 29 0 3 16 61 81 61 100 100 100 100 100 100 100 100
100 100 100 100 100 100 100 100 100 100 100 100 100 100 100 100 100 100 100 94 100 100 100 100 100 100 94 48 13 13 13 35 87 74 42 100 100 100 100 100 100 100 100
100 100 100 100 100 100 100 100 100 100 100 100 100 100 100 100 100 100 90 94 100 100 100 100 100 90 55 32 10 3 0 0 3 6 42 90 97 97 87 81 74 97 100
100 100 100 100 100 100 100 100 100 100 100 100 100 100 97 100 94 97 100 100 100 100 100 97 81 52 19 3 0 0 0 0 0 3 58 84 84 81 58 29 32 52 90
94 100 100 100 100 100 100 100 100 100 100 100 100 100 97 97 100 97 100 100 100 100 97 65 16 6 0 0 0 0 0 0 0 0 48 48 55 39 10 0 0 3 13
100 100 100 100 100 100 100 100 100 100 100 100 100 100 100 100 100 100 100 100 100 97 65 16 0 0 0 0 0 0 0 0 0 0 3 3 3 6 0 0 0 0 0
100 100 100 100 100 100 100 100 100 100 100 100 100 100 100 100 100 100 100 100 100 97 48 3 0 0 0 0 0 0 0 0 0 0 0 0 0 0 0 0 0 0 0
100 100 100 100 100 100 100 100 100 100 100 100 100 100 100 100 100 100 100 100 100 100 45 3 0 0 0 0 0 0 0 0 0 0 0 3 3 3 0 0 0 0 0
100 100 100 100 100 100 100 100 100 100 100 100 100 100 100 100 100 100 100 100 100 100 55 10 3 0 0 0 0 0 0 0 0 0 0 19 13 3 0 0 0 0 0
100 100 100 100 100 100 100 100 100 100 100 100 100 100 100 100 100 100 100 100 100 100 58 23 6 0 0 0 0 0 0 0 0 0 0 48 10 0 0 0 0 6 39
97 97 94 100 100 100 100 100 100 100 100 100 100 100 100 100 100 100 100 100 100 97 68 0 13 0 0 0 0 0 0 0 0 0 0 42 13 3 0 0 16 39 65
68 52 71 97 100 100 100 100 97 100 100 100 100 100 100 100 100 100 94 100 97 65 29 58 19 26 3 0 0 0 0 0 0 0 0 29 48 13 3 3 16 39 55
45 26 45 100 100 100 100 100 100 100 100 100 100 100 100 100 100 100 97 97 87 81 74 74 42 19 29 35 0 0 0 0 3 3 0 29 32 19 16 16 16 29 35
87 87 90 100 100 100 100 100 100 100 90 100 100 100 100 100 100 100 97 90 90 87 48 55 10 16 0 0 3 0 0 0 0 0 0 0 3 13 16 19 29 32 23
97 100 94 90 100 100 100 100 100 97 100 100 100 97 97 97 87 94 77 58 68 26 10 10 0 0 0 0 0 0 0 0 0 0 0 0 0 0 0 10 13 19 16
100 100 100 100 100 100 100 100 100 100 94 87 74 58 39 23 13 32 23 23 6 3 0 0 0 0 0 0 0 0 0 0 0 0 0 0 0 0 0 0 3 16 6
97 100 100 100 100 100 100 100 97 87 81 45 29 32 16 0 0 3 3 0 0 0 0 0 0 0 0 0 0 0 0 0 0 0 0 0 0 0 0 0 0 0 0
97 100 100 100 100 100 100 97 90 74 35 13 3 3 0 0 0 0 0 0 0 0 0 0 0 0 0 0 0 0 0 0 0 0 0 0 0 0 0 0 0 0 0
97 100 100 100 100 100 100 100 94 65 23 0 0 0 0 0 0 0 0 0 0 0 0 0 0 0 0 0 0 0 0 0 0 0 0 0 0 0 0 0 0 0 0
100 100 100 100 100 100 100 81 45 10 0 0 0 0 0 0 0 0 0 0 0 0 0 0 0 0 0 0 0 0 0 0 0 0 0 0 0 0 0 0 0 0 0
94 100 100 100 100 100 94 52 26 6 0 0 0 0 0 0 0 0 0 0 0 0 0 0 0 0 0 0 0 0 0 0 0 0 0 0 0 0 0 0 0 0 0
97 100 100 97 97 97 87 77 58 10 0 0 0 0 0 0 0 0 0 0 0 0 0 0 0 0 0 0 0 0 0 0 0 0 0 0 0 0 0 0 0 0 0
90 90 87 71 71 65 45 16 10 0 0 0 0 0 0 0 0 0 0 0 0 0 0 0 0 0 0 0 0 0 0 0 0 0 0 0 0 0 0 0 0 0 0

GEFSSE_con_cape1000_012.txt.gz
Probability
90 100 100 100 100 100 100 100 100 100 100 100 100 100 100 100 100 100 100 100 100 100 100 100 100 100 100 97 81 42 32 39 58 84 97 97 100 100 100 100 100 100 100
94 100 100 100 100 100 100 100 100 100 100 100 100 100 100 100 100 100 100 100 100 100 100 100 100 100 97 81 35 6 10 26 55 55 71 84 90 90 100 100 100 100 100
100 100 100 100 100 100 100 100 100 100 100 100 100 100 100 100 100 100 100 100 100 100 100 100 100 100 97 68 16 0 19 48 74 77 84 74 90 97 100 100 100 100 100
100 100 100 100 100 100 100 100 100 100 100 100 100 100 100 100 100 100 100 100 100 100 100 100 100 100 90 52 3 0 16 35 68 55 23 71 100 100 100 100 100 100 100
84 100 100 100 100 100 100 100 100 100 100 100 100 100 100 100 100 100 100 100 100 100 100 100 100 97 81 42 6 3 6 6 13 3 13 65 87 100 100 100 100 100 100
74 100 100 100 100 100 100 100 100 100 100 100 100 100 100 100 100 100 100 100 100 100 100 100 100 90 61 29 10 3 0 0 0 0 19 71 77 87 97 100 100 100 100
58 100 100 100 100 100 100 100 100 100 100 100 100 100 100 100 100 100 100 100 100 100 100 100 97 87 55 16 3 3 0 3 0 6 48 61 65 71 68 74 90 100 100
90 100 100 100 100 100 100 100 100 100 100 100 100 100 100 100 100 100 100 100 100 100 100 97 84 58 35 10 3 0 0 0 6 39 45 32 48 48 32 23 42 74 87
100 100 100 100 100 100 100 100 100 100 100 100 100 100 100 100 100 100 100 100 100 100 97 71 42 32 23 13 3 3 0 3 0 3 39 16 29 16 0 0 19 26 39
100 100 100 100 100 100 100 100 100 100 100 100 100 100 100 100 100 100 100 100 100 100 90 81 61 42 26 10 3 3 0 0 0 0 3 13 48 16 0 0 0 0 0
100 100 100 100 100 100 100 100 100 100 100 100 100 100 100 100 100 100 100 100 100 100 100 87 68 29 16 6 6 10 6 0 0 0 0 3 55 13 0 0 0 0 0
97 100 100 100 100 100 100 100 100 100 100 100 97 100 74 23 35 94 100 100 100 100 100 74 48 19 3 0 0 0 0 0 0 0 0 16 81 26 3 13 13 3 6
97 100 100 100 100 100 100 100 100 100 100 87 55 26 13 35 42 52 71 100 100 100 77 39 26 0 0 0 0 0 0 0 0 0 0 39 87 65 26 32 42 39 39
100 100 100 100 100 100 100 100 100 100 90 77 74 26 6 32 39 48 13 48 58 61 23 3 0 0 0 0 0 0 0 0 0 0 0 68 94 94 68 52 52 58 84
94 100 100 100 97 97 94 100 100 97 87 81 81 74 32 35 32 55 26 13 10 10 3 0 0 0 0 0 0 0 0 0 0 0 0 61 84 87 77 71 58 55 68
94 97 100 100 97 94 97 97 100 100 94 94 90 90 52 23 10 26 10 0 0 0 0 0 0 0 0 0 0 0 0 0 0 0 0 0 35 48 58 55 42 29 26
84 87 100 100 100 90 81 90 97 97 97 90 74 39 16 3 0 0 0 0 0 0 0 0 0 0 0 0 0 0 0 0 0 0 0 0 0 0 39 42 42 42 26
61 77 97 100 87 58 55 48 71 90 90 68 35 16 3 0 0 0 0 0 0 0 0 0 0 0 0 0 0 0 0 0 0 0 0 0 0 0 0 0 10 13 13
39 74 87 100 71 32 10 10 26 32 35 3 0 0 0 0 0 0 0 0 0 0 0 0 0 0 0 0 0 0 0 0 0 0 0 0 0 0 0 0 0 6 0
32 74 81 94 74 45 23 10 6 3 0 0 0 0 0 0 0 0 0 0 0 0 0 0 0 0 0 0 0 0 0 0 0 0 0 0 0 0 0 0 0 0 0
19 55 84 97 90 77 52 13 3 0 0 0 0 0 0 0 0 0 0 0 0 0 0 0 0 0 0 0 0 0 0 0 0 0 0 0 0 0 0 0 0 0 0
19 42 81 100 90 81 45 6 0 0 0 0 0 0 0 0 0 0 0 0 0 0 0 0 0 0 0 0 0 0 0 0 0 0 0 0 0 0 0 0 0 0 0
29 55 84 100 97 81 19 0 0 0 0 0 0 0 0 0 0 0 0 0 0 0 0 0 0 0 0 0 0 0 0 0 0 0 0 0 0 0 0 0 0 0 0
42 68 94 94 90 32 0 0 0 0 0 0 0 0 0 0 0 0 0 0 0 0 0 0 0 0 0 0 0 0 0 0 0 0 0 0 0 0 0 0 0 0 0
74 84 90 77 29 0 0 0 0 0 0 0 0 0 0 0 0 0 0 0 0 0 0 0 0 0 0 0 0 0 0 0 0 0 0 0 0 0 0 0 0 0 0
74 61 35 6 3 0 0 0 0 0 0 0 0 0 0 0 0 0 0 0 0 0 0 0 0 0 0 0 0 0 0 0 0 0 0 0 0 0 0 0 0 0 0

GEFSSE_con_cape1000_018.txt.gz
Probability
0 65 100 100 100 100 100 100 100 100 100 100 100 100 100 100 100 100 100 100 100 100 100 100 100 100 100 97 94 97 97 100 100 100 100 100 100 100 100 100 100 100 100
16 100 100 100 100 100 100 100 100 100 100 100 100 100 100 100 100 100 100 100 100 100 100 100 100 100 100 97 87 84 68 81 97 97 97 87 87 94 100 100 100 100 100
81 100 100 100 100 100 100 100 100 100 100 100 100 100 100 100 100 100 100 100 100 100 100 100 100 100 100 90 84 74 48 61 77 74 84 81 100 100 100 100 100 100 100
97 100 100 100 100 100 100 100 100 100 100 100 100 100 100 100 100 100 100 100 100 100 100 100 100 90 87 74 29 10 10 19 32 42 55 90 100 100 100 100 100 100 100
100 100 100 100 100 100 100 100 100 100 100 100 100 100 100 100 100 100 100 100 100 100 100 100 100 90 74 35 10 0 3 13 23 32 42 84 94 100 100 100 100 100 100
100 100 100 100 100 100 100 100 100 100 100 100 100 100 100 100 100 100 100 100 100 100 100 100 97 90 65 19 3 0 6 13 13 26 68 87 90 97 100 100 100 100 100
100 100 100 100 100 100 100 100 100 100 100 100 100 100 100 100 100 100 100 100 100 100 100 100 90 77 45 16 6 3 3 26 10 42 71 81 81 97 100 100 100 100 100
100 100 100 100 100 100 100 100 100 100 100 100 100 100 100 100 100 100 100 100 100 100 100 97 90 61 35 13 0 0 6 19 35 52 74 61 68 87 87 90 100 100 100
100 100 100 100 100 100 100 100 100 100 100 100 100 100 100 100 100 100 100 100 100 100 100 97 68 39 29 10 6 3 3 16 3 42 61 48 55 61 65 61 81 90 97
100 100 100 100 100 100 100 100 100 100 100 100 100 100 100 100 100 100 100 100 100 100 100 94 68 35 32 13 10 3 3 3 0 16 32 32 58 52 39 29 45 58 81
100 100 100 100 100 100 100 100 100 100 100 100 100 100 100 100 100 100 100 100 100 100 94 94 81 61 29 3 0 0 3 0 0 3 3 32 55 48 39 19 26 23 39
100 100 100 100 100 100 100 100 100 100 100 100 100 100 100 97 97 100 100 100 100 100 97 94 74 48 3 0 0 0 0 0 0 0 0 26 58 48 42 23 13 6 6
94 97 100 100 100 100 100 100 100 100 100 100 100 100 65 3 6 90 65 100 100 100 94 68 29 0 0 0 0 0 0 0 0 0 0 19 68 52 35 32 23 10 13
87 90 97 100 100 100 97 100 100 100 87 65 45 32 6 0 0 3 0 19 35 42 42 6 0 0 0 0 0 0 0 0 0 0 0 6 45 55 42 52 55 42 61
94 81 94 100 100 100 97 100 97 84 74 45 16 6 0 0 0 0 0 0 0 0 0 0 0 0 0 0 0 0 0 0 0 0 0 0 13 29 23 23 26 35 45
97 71 74 94 97 97 97 97 94 77 55 29 16 3 0 0 0 0 3 0 0 0 0 0 0 0 0 0 0 0 0 0 0 0 0 0 0 0 6 6 0 3 6
77 55 58 81 90 97 90 87 84 74 39 29 10 3 6 0 0 0 0 0 0 0 0 0 0 0 0 0 0 0 0 0 0 0 0 0 0 0 0 0 0 0 0
81 55 48 77 84 90 84 68 52 35 26 13 6 3 16 3 0 0 0 0 0 0 0 0 0 0 0 0 0 0 0 0 0 0 0 0 0 0 0 0 0 0 0
94 81 81 77 84 81 68 45 26 19 23 10 3 0 3 3 0 0 0 0 0 0 0 0 0 0 0 0 0 0 0 0 0 0 0 0 0 0 0 0 0 0 0
87 87 97 97 97 71 48 19 6 0 0 0 0 0 0 0 0 0 0 0 0 0 0 0 0 0 0 0 0 0 0 0 0 0 0 0 0 0 0 0 0 0 0
74 84 90 97 81 58 32 19 3 0 0 0 0 0 0 0 0 0 0 0 0 0 0 0 0 0 0 0 0 0 0 0 0 0 0 0 0 0 0 0 0 0 0
65 58 68 81 65 61 35 10 0 0 0 0 0 0 0 0 0 0 0 0 0 0 0 0 0 0 0 0 0 0 0 0 0 0 0 0 0 0 0 0 0 0 0
48 48 58 68 58 32 6 0 0 0 0 0 0 0 0 0 0 0 0 0 0 0 0 0 0 0 0 0 0 0 0 0 0 0 0 0 0 0 0 0 0 0 0
32 35 48 35 16 10 0 0 0 0 0 0 0 0 0 0 0 0 0 0 0 0 0 0 0 0 0 0 0 0 0 0 0 0 0 0 0 0 0 0 0 0 0
23 42 29 13 6 0 0 0 0 0 0 0 0 0 0 0 0 0 0 0 0 0 0 0 0 0 0 0 0 0 0 0 0 0 0 0 0 0 0 0 0 0 0
32 39 26 6 0 0 0 0 0 0 0 0 0 0 0 0 0 0 0 0 0 0 0 0 0 0 0 0 0 0 0 0 0 0 0 0 0 0 0 0 0 0 0

GEFSSE_con_cape1000_024.txt.gz
Probability
6 81 100 100 100 100 100 100 100 100 100 100 100 100 100 100 100 100 100 100 100 100 100 100 100 100 100 100 97 97 100 100 100 100 100 100 100 100 100 97 94 100 100
13 97 100 100 100 100 100 100 100 100 100 100 100 100 100 100 100 100 100 100 100 100 100 100 100 100 100 97 87 94 97 100 100 97 97 100 100 100 100 97 97 100 100
32 97 100 100 100 100 100 100 100 100 100 100 100 100 100 100 100 100 100 100 100 100 100 100 100 100 97 90 81 71 81 87 97 97 97 81 90 100 100 100 100 100 100
39 100 100 100 100 100 100 100 100 100 100 100 100 100 100 100 100 100 100 100 100 100 100 100 100 87 71 55 19 19 32 61 77 90 90 74 90 100 100 100 100 100 100
48 90 100 100 100 100 100 100 100 100 100 100 100 100 100 100 100 100 100 100 100 100 100 100 100 84 45 19 0 6 10 26 58 61 94 100 100 100 100 100 100 100 100
35 77 100 100 100 100 100 100 100 100 100 100 100 100 100 100 100 100 100 100 100 100 100 100 94 61 23 6 0 0 13 26 42 77 97 94 97 100 100 100 100 100 100
39 81 100 100 100 100 100 100 100 100 100 100 100 100 100 100 100 100 100 100 100 100 100 97 81 42 16 3 3 6 13 29 77 68 87 81 97 100 100 100 100 100 100
52 81 100 100 100 100 100 100 100 100 100 100 100 100 100 100 100 100 100 100 100 100 100 90 68 32 16 0 0 6 10 32 55 61 74 52 84 94 100 100 100 100 100
61 87 100 100 100 100 100 100 100 100 100 100 100 100 100 100 100 100 100 100 100 100 100 84 58 32 13 0 0 3 10 23 58 48 29 32 81 87 74 77 87 97 100
87 100 100 100 100 100 100 100 100 100 100 100 100 100 100 100 100 100 100 100 100 100 97 77 55 29 13 3 3 3 3 23 19 19 13 52 71 65 55 48 45 55 77
100 100 100 100 100 100 100 100 100 100 100 100 100 100 100 100 100 100 100 100 100 100 94 77 65 29 23 0 0 3 3 6 3 6 29 65 68 55 45 29 16 16 19
100 100 100 100 100 100 100 100 100 100 100 100 100 100 100 100 100 100 100 100 100 100 90 84 58 23 0 0 0 0 0 0 0 3 16 32 55 48 39 23 3 0 0
100 100 100 100 100 100 100 100 100 100 100 100 100 100 100 100 100 100 100 100 100 100 87 81 29 6 0 0 0 0 0 0 0 0 13 16 42 42 29 16 13 3 0
97 100 100 100 100 100 100 100 100 100 100 100 100 100 100 100 100 100 100 100 100 100 90 61 26 3 0 0 0 0 0 0 0 0 23 13 23 26 23 16 10 3 3
100 100 100 100 100 100 100 100 100 100 100 100 100 100 100 100 100 100 100 100 97 90 90 58 23 13 0 0 0 0 0 0 0 0 6 6 6 6 0 6 3 3 0
100 100 100 100 100 100 100 100 100 100 100 100 100 100 100 100 100 100 100 100 94 90 77 58 42 23 0 0 0 0 0 0 0 0 0 0 3 3 0 0 0 0 0
100 100 100 100 100 100 100 100 100 100 100 100 100 100 100 100 100 100 100 94 90 94 81 52 26 3 0 0 0 0 0 0 0 0 0 0 0 0 0 0 0 0 0
100 100 100 100 100 100 100 100 100 100 100 97 97 97 97 97 97 94 94 84 74 48 35 29 3 0 0 0 0 0 0 0 0 0 0 0 0 0 0 0 0 0 0
100 100 100 100 100 100 100 100 100 94 90 90 90 90 90 90 90 84 68 39 35 23 6 3 0 0 0 0 0 0 0 0 0 0 0 0 0 0 0 0 0 0 0
100 100 100 100 100 100 100 90 81 81 77 77 77 71 68 68 58 42 32 23 13 3 3 0 0 0 0 0 0 0 0 0 0 0 0 0 0 0 0 0 0 0 0
100 100 100 100 100 100 97 84 81 71 45 26 26 16 16 19 19 19 6 3 3 3 0 0 0 0 0 0 0 0 0 0 0 0 0 0 0 0 0 0 0 0 0
100 100 100 100 100 97 90 81 68 39 13 6 6 6 6 3 6 0 0 0 0 0 0 0 0 0 0 0 0 0 0 0 0 0 0 0 0 0 0 0 0 0 0
100 100 100 100 97 90 74 58 32 13 0 0 0 0 0 0 0 0 0 0 0 0 0 0 0 0 0 0 0 0 0 0 0 0 0 0 0 0 0 0 0 0 0
94 100 100 97 90 84 65 42 32 16 3 0 0 0 0 0 0 0 0 0 0 0 0 0 0 0 0 0 0 0 0 0 0 0 0 0 0 0 0 0 0 0 0
90 97 100 90 84 65 52 35 29 6 3 0 0 0 0 0 0 0 0 0 0 0 0 0 0 0 0 0 0 0 0 0 0 0 0 0 0 0 0 0 0 0 0
100 94 90 77 52 45 29 26 16 6 0 0 0 0 0 0 0 0 0 0 0 0 0 0 0 0 0 0 0 0 0 0 0 0 0 0 0 0 0 0 0 0 0